| time (UTC) | temp F | wind direction | speed MPH | gust MPH | rain 1hr in | rain 24hr in | rain mn in | humidity % | barometer mb |
| 20260510004805 | 83 | 194 | 1.0 | 1.0 | 0.00 | 0.00 | 0.00 | 66 | 1004.0 |
| 20260510004303 | 83 | 196 | 1.0 | 1.0 | 0.00 | 0.00 | 0.00 | 65 | 1003.9 |
| 20260510003800 | 83 | 191 | 0.0 | 1.0 | 0.00 | 0.00 | 0.00 | 64 | 1003.8 |
| 20260510003257 | 83 | 235 | 1.0 | 2.0 | 0.00 | 0.00 | 0.00 | 64 | 1003.8 |
| 20260510002755 | 83 | 192 | 1.0 | 3.0 | 0.00 | 0.00 | 0.00 | 63 | 1003.8 |
| 20260510002253 | 84 | 184 | 2.0 | 3.0 | 0.00 | 0.00 | 0.00 | 63 | 1003.7 |
| 20260510001749 | 84 | 194 | 1.0 | 1.0 | 0.00 | 0.00 | 0.00 | 64 | 1003.9 |
| 20260510001248 | 84 | 200 | 0.0 | 1.0 | 0.00 | 0.00 | 0.00 | 64 | 1003.5 |
| 20260510000743 | 84 | 125 | 1.0 | 2.0 | 0.00 | 0.00 | 0.00 | 63 | 1003.8 |
| 20260510000241 | 84 | 198 | 1.0 | 1.0 | 0.00 | 0.00 | 0.00 | 64 | 1003.8 |
| 20260509235738 | 84 | 216 | 2.0 | 4.0 | 0.00 | 0.00 | 0.00 | 63 | 1003.9 |
| 20260509235234 | 84 | 147 | 3.0 | 4.0 | 0.00 | 0.00 | 0.00 | 65 | 1003.7 |
| 20260509234730 | 84 | 166 | 2.0 | 3.0 | 0.00 | 0.00 | 0.00 | 64 | 1003.7 |
| 20260509234227 | 84 | 175 | 2.0 | 2.0 | 0.00 | 0.00 | 0.00 | 63 | 1003.8 |
| 20260509233725 | 84 | 194 | 1.0 | 2.0 | 0.00 | 0.00 | 0.00 | 61 | 1003.8 |
| 20260509233223 | 85 | 209 | 1.0 | 2.0 | 0.00 | 0.00 | 0.00 | 62 | 1003.7 |
| 20260509232718 | 85 | 189 | 2.0 | 3.0 | 0.00 | 0.00 | 0.00 | 61 | 1003.6 |
| 20260509232216 | 86 | 174 | 1.0 | 1.0 | 0.00 | 0.00 | 0.00 | 62 | 1003.9 |
| 20260509231712 | 86 | 205 | 2.0 | 3.0 | 0.00 | 0.00 | 0.00 | 62 | 1003.9 |
| 20260509231209 | 85 | 193 | 2.0 | 3.0 | 0.00 | 0.00 | 0.00 | 60 | 1003.9 |
| 20260509230707 | 85 | 200 | 1.0 | 2.0 | 0.00 | 0.00 | 0.00 | 61 | 1004.0 |
| 20260509230203 | 85 | 203 | 2.0 | 3.0 | 0.00 | 0.00 | 0.00 | 60 | 1003.8 |
| 20260509225659 | 86 | 297 | 4.0 | 6.0 | 0.00 | 0.00 | 0.00 | 61 | 1004.0 |
| 20260509225155 | 86 | 201 | 4.0 | 7.0 | 0.00 | 0.00 | 0.00 | 59 | 1004.0 |
| 20260509224651 | 87 | 200 | 2.0 | 2.0 | 0.00 | 0.00 | 0.00 | 59 | 1004.0 |
| 20260509224148 | 87 | 188 | 1.0 | 2.0 | 0.00 | 0.00 | 0.00 | 60 | 1004.0 |
| 20260509223644 | 87 | 262 | 1.0 | 2.0 | 0.00 | 0.00 | 0.00 | 61 | 1003.8 |
| 20260509223142 | 87 | 192 | 2.0 | 2.0 | 0.00 | 0.00 | 0.00 | 60 | 1004.0 |
| 20260509222639 | 87 | 192 | 1.0 | 2.0 | 0.00 | 0.00 | 0.00 | 61 | 1003.7 |
| 20260509222134 | 88 | 207 | 1.0 | 2.0 | 0.00 | 0.00 | 0.00 | 61 | 1003.9 |
| 20260509221630 | 87 | 199 | 0.0 | 1.0 | 0.00 | 0.00 | 0.00 | 62 | 1003.8 |
| 20260509221126 | 88 | 189 | 3.0 | 4.0 | 0.00 | 0.00 | 0.00 | 60 | 1003.9 |
| 20260509220622 | 89 | 189 | 2.0 | 2.0 | 0.00 | 0.00 | 0.00 | 58 | 1003.8 |
| 20260509220119 | 88 | 260 | 2.0 | 3.0 | 0.00 | 0.00 | 0.00 | 58 | 1003.9 |
| 20260509215614 | 88 | 182 | 1.0 | 2.0 | 0.00 | 0.00 | 0.00 | 59 | 1003.8 |
| 20260509215106 | 89 | 20 | 3.0 | 7.0 | 0.00 | 0.00 | 0.00 | 57 | 1003.6 |
| 20260509214603 | 90 | 208 | 0.0 | 1.0 | 0.00 | 0.00 | 0.00 | 56 | 1003.7 |
| 20260509214100 | 90 | 355 | 2.0 | 2.0 | 0.00 | 0.00 | 0.00 | 56 | 1003.7 |
| 20260509213555 | 90 | 216 | 1.0 | 2.0 | 0.00 | 0.00 | 0.00 | 55 | 1003.6 |
| 20260509213052 | 90 | 208 | 1.0 | 1.0 | 0.00 | 0.00 | 0.00 | 55 | 1004.0 |
| 20260509212550 | 90 | 143 | 2.0 | 4.0 | 0.00 | 0.00 | 0.00 | 53 | 1003.9 |
| 20260509212046 | 90 | 307 | 2.0 | 4.0 | 0.00 | 0.00 | 0.00 | 55 | 1003.9 |
| 20260509211542 | 90 | 95 | 1.0 | 1.0 | 0.00 | 0.00 | 0.00 | 56 | 1004.0 |
| 20260509211039 | 89 | 188 | 1.0 | 2.0 | 0.00 | 0.00 | 0.00 | 58 | 1003.7 |
| 20260509210535 | 90 | 273 | 1.0 | 2.0 | 0.00 | 0.00 | 0.00 | 56 | 1003.8 |
| 20260509210031 | 89 | 250 | 2.0 | 3.0 | 0.00 | 0.00 | 0.00 | 56 | 1003.8 |
| 20260509205526 | 90 | 215 | 1.0 | 1.0 | 0.00 | 0.00 | 0.00 | 57 | 1004.1 |
| 20260509205022 | 89 | 175 | 3.0 | 6.0 | 0.00 | 0.00 | 0.00 | 57 | 1004.1 |
| 20260509204519 | 90 | 97 | 1.0 | 2.0 | 0.00 | 0.00 | 0.00 | 57 | 1004.0 |
| 20260509204015 | 89 | 96 | 3.0 | 6.0 | 0.00 | 0.00 | 0.00 | 57 | 1004.0 |
| 20260509203511 | 90 | 186 | 3.0 | 4.0 | 0.00 | 0.00 | 0.00 | 57 | 1004.1 |
| 20260509203009 | 89 | 306 | 2.0 | 3.0 | 0.00 | 0.00 | 0.00 | 57 | 1003.9 |
| 20260509202503 | 87 | 33 | 4.0 | 7.0 | 0.00 | 0.00 | 0.00 | 59 | 1004.0 |
| 20260509201959 | 88 | 231 | 2.0 | 2.0 | 0.00 | 0.00 | 0.00 | 60 | 1004.2 |
| 20260509201454 | 89 | 261 | 2.0 | 3.0 | 0.00 | 0.00 | 0.00 | 59 | 1004.0 |
| 20260509200952 | 89 | 54 | 1.0 | 2.0 | 0.00 | 0.00 | 0.00 | 61 | 1004.3 |
| 20260509200447 | 89 | 227 | 1.0 | 1.0 | 0.00 | 0.00 | 0.00 | 61 | 1004.2 |
| 20260509195943 | 88 | 217 | 0.0 | 0.0 | 0.00 | 0.00 | 0.00 | 62 | 1004.2 |
| 20260509195439 | 89 | 356 | 4.0 | 6.0 | 0.00 | 0.00 | 0.00 | 60 | 1004.1 |
| 20260509194938 | 88 | 10 | 2.0 | 3.0 | 0.00 | 0.00 | 0.00 | 61 | 1004.2 |
| 20260509194434 | 89 | 201 | 0.0 | 2.0 | 0.00 | 0.00 | 0.00 | 61 | 1004.4 |
| 20260509193931 | 88 | 257 | 3.0 | 3.0 | 0.00 | 0.00 | 0.00 | 63 | 1004.4 |
| 20260509193431 | 88 | 356 | 2.0 | 3.0 | 0.00 | 0.00 | 0.00 | 63 | 1004.5 |
| 20260509192927 | 89 | 59 | 2.0 | 2.0 | 0.00 | 0.00 | 0.00 | 63 | 1004.4 |
| 20260509192424 | 88 | 9 | 2.0 | 3.0 | 0.00 | 0.00 | 0.00 | 65 | 1004.5 |
| 20260509191919 | 88 | 263 | 1.0 | 1.0 | 0.00 | 0.00 | 0.00 | 64 | 1004.4 |
| 20260509191415 | 88 | 326 | 2.0 | 3.0 | 0.00 | 0.00 | 0.00 | 64 | 1004.3 |
| 20260509190911 | 89 | 339 | 2.0 | 4.0 | 0.00 | 0.00 | 0.00 | 63 | 1004.2 |
| 20260509190408 | 89 | 252 | 1.0 | 2.0 | 0.00 | 0.00 | 0.00 | 65 | 1004.2 |
| 20260509185906 | 89 | 233 | 1.0 | 2.0 | 0.00 | 0.00 | 0.00 | 64 | 1004.4 |
| 20260509185403 | 88 | 241 | 1.0 | 2.0 | 0.00 | 0.00 | 0.00 | 64 | 1004.1 |
| 20260509184859 | 89 | 272 | 3.0 | 4.0 | 0.00 | 0.00 | 0.00 | 63 | 1004.3 |
| 20260509184356 | 88 | 209 | 0.0 | 1.0 | 0.00 | 0.00 | 0.00 | 65 | 1004.3 |
| 20260509183854 | 89 | 220 | 0.0 | 0.0 | 0.00 | 0.00 | 0.00 | 64 | 1004.4 |
| 20260509183348 | 90 | 266 | 4.0 | 4.0 | 0.00 | 0.00 | 0.00 | 62 | 1004.4 |
| 20260509182844 | 90 | 247 | 1.0 | 2.0 | 0.00 | 0.00 | 0.00 | 61 | 1004.3 |
| 20260509182342 | 89 | 229 | 0.0 | 0.0 | 0.00 | 0.00 | 0.00 | 64 | 1004.2 |
| 20260509181839 | 89 | 197 | 3.0 | 3.0 | 0.00 | 0.00 | 0.00 | 62 | 1004.3 |
| 20260509181336 | 89 | 200 | 0.0 | 1.0 | 0.00 | 0.00 | 0.00 | 59 | 1004.3 |
| 20260509180833 | 88 | 234 | 1.0 | 1.0 | 0.00 | 0.00 | 0.00 | 62 | 1004.5 |
| 20260509180329 | 89 | 235 | 0.0 | 1.0 | 0.00 | 0.00 | 0.00 | 62 | 1004.7 |
| 20260509175826 | 88 | 219 | 1.0 | 1.0 | 0.00 | 0.00 | 0.00 | 64 | 1004.5 |
| 20260509175322 | 88 | 233 | 0.0 | 0.0 | 0.00 | 0.00 | 0.00 | 65 | 1004.7 |
| 20260509174818 | 88 | 227 | 1.0 | 1.0 | 0.00 | 0.00 | 0.00 | 64 | 1004.8 |
| 20260509174314 | 88 | 237 | 1.0 | 1.0 | 0.00 | 0.00 | 0.00 | 64 | 1004.8 |
| 20260509173810 | 88 | 236 | 1.0 | 1.0 | 0.00 | 0.00 | 0.00 | 63 | 1004.8 |
| 20260509173306 | 87 | 229 | 0.0 | 0.0 | 0.00 | 0.00 | 0.00 | 63 | 1004.8 |
| 20260509172802 | 86 | 252 | 2.0 | 3.0 | 0.00 | 0.00 | 0.00 | 65 | 1004.9 |
| 20260509172259 | 85 | 228 | 0.0 | 0.0 | 0.00 | 0.00 | 0.00 | 67 | 1005.0 |
| 20260509171755 | 86 | 212 | 1.0 | 2.0 | 0.00 | 0.00 | 0.00 | 68 | 1005.1 |
| 20260509171251 | 86 | 205 | 1.0 | 1.0 | 0.00 | 0.00 | 0.00 | 69 | 1005.0 |
| 20260509170747 | 86 | 204 | 0.0 | 1.0 | 0.00 | 0.00 | 0.00 | 67 | 1005.0 |
| 20260509170243 | 86 | 207 | 0.0 | 0.0 | 0.00 | 0.00 | 0.00 | 65 | 1005.3 |
| 20260509165742 | 86 | 189 | 2.0 | 2.0 | 0.00 | 0.00 | 0.00 | 66 | 1005.3 |
| 20260509165238 | 86 | 209 | 0.0 | 1.0 | 0.00 | 0.00 | 0.00 | 68 | 1005.2 |
| 20260509164734 | 84 | 212 | 1.0 | 1.0 | 0.00 | 0.00 | 0.00 | 71 | 1005.4 |
| 20260509164229 | 85 | 212 | 1.0 | 1.0 | 0.00 | 0.00 | 0.00 | 70 | 1005.4 |
| 20260509163727 | 84 | 225 | 0.0 | 1.0 | 0.00 | 0.00 | 0.00 | 72 | 1005.5 |
| 20260509163223 | 84 | 235 | 1.0 | 1.0 | 0.00 | 0.00 | 0.00 | 71 | 1005.8 |
| 20260509162721 | 83 | 221 | 0.0 | 0.0 | 0.00 | 0.00 | 0.00 | 74 | 1005.6 |
| 20260509162216 | 82 | 224 | 0.0 | 1.0 | 0.00 | 0.00 | 0.00 | 73 | 1005.6 |
| 20260509161712 | 82 | 228 | 0.0 | 0.0 | 0.00 | 0.00 | 0.00 | 75 | 1005.6 |
| 20260509161209 | 82 | 221 | 1.0 | 2.0 | 0.00 | 0.00 | 0.00 | 73 | 1005.7 |
| 20260509160704 | 82 | 220 | 2.0 | 2.0 | 0.00 | 0.00 | 0.00 | 76 | 1005.7 |
| 20260509160200 | 81 | 242 | 1.0 | 1.0 | 0.00 | 0.00 | 0.00 | 79 | 1005.9 |
| 20260509155656 | 79 | 223 | 0.0 | 1.0 | 0.00 | 0.00 | 0.00 | 80 | 1006.0 |
| 20260509155152 | 78 | 222 | 0.0 | 0.0 | 0.00 | 0.00 | 0.00 | 82 | 1005.7 |
| 20260509154648 | 77 | 223 | 0.0 | 0.0 | 0.00 | 0.00 | 0.00 | 86 | 1005.5 |
| 20260509154146 | 77 | 232 | 1.0 | 1.0 | 0.00 | 0.00 | 0.00 | 86 | 1005.2 |
| 20260509153642 | 77 | 222 | 0.0 | 0.0 | 0.00 | 0.00 | 0.00 | 87 | 1005.2 |
| 20260509153139 | 76 | 218 | 0.0 | 0.0 | 0.00 | 0.00 | 0.00 | 89 | 1005.0 |
| 20260509152634 | 75 | 215 | 0.0 | 0.0 | 0.00 | 0.00 | 0.00 | 94 | 1005.2 |
| 20260509152132 | 73 | 214 | 0.0 | 0.0 | 0.00 | 0.00 | 0.00 | 98 | 1005.0 |
| 20260509151628 | 72 | 214 | 0.0 | 0.0 | 0.00 | 0.00 | 0.00 | 99 | 1005.1 |
| 20260509151126 | 72 | 217 | 0.0 | 0.0 | 0.00 | 0.00 | 0.00 | 99 | 1004.8 |
| 20260509150624 | 71 | 215 | 0.0 | 0.0 | 0.00 | 0.00 | 0.00 | 99 | 1004.9 |
| 20260509150122 | 72 | 214 | 0.0 | 0.0 | 0.00 | 0.00 | 0.00 | 99 | 1004.8 |
| 20260509145617 | 71 | 217 | 0.0 | 0.0 | 0.00 | 0.00 | 0.00 | 99 | 1005.0 |
| 20260509145113 | 71 | 212 | 0.0 | 0.0 | 0.00 | 0.00 | 0.00 | 99 | 1004.6 |
| 20260509144610 | 71 | 213 | 0.0 | 0.0 | 0.00 | 0.00 | 0.00 | 99 | 1004.8 |
| 20260509144107 | 70 | 209 | 0.0 | 0.0 | 0.00 | 0.00 | 0.00 | 99 | 1004.9 |
| 20260509143604 | 70 | 207 | 0.0 | 0.0 | 0.00 | 0.00 | 0.00 | 99 | 1004.7 |
| 20260509143102 | 70 | 207 | 0.0 | 0.0 | 0.00 | 0.00 | 0.00 | 99 | 1004.2 |
| 20260509142556 | 70 | 210 | 0.0 | 0.0 | 0.00 | 0.00 | 0.00 | 99 | 1004.1 |
| 20260509142053 | 70 | 214 | 0.0 | 0.0 | 0.00 | 0.00 | 0.00 | 99 | 1004.1 |
| 20260509141549 | 69 | 206 | 0.0 | 0.0 | 0.00 | 0.00 | 0.00 | 99 | 1004.1 |
| 20260509141046 | 69 | 217 | 0.0 | 0.0 | 0.00 | 0.00 | 0.00 | 99 | 1004.0 |
| 20260509140543 | 69 | 213 | 0.0 | 0.0 | 0.00 | 0.00 | 0.00 | 99 | 1004.4 |
| 20260509140041 | 69 | 213 | 0.0 | 0.0 | 0.00 | 0.00 | 0.00 | 99 | 1004.6 |
| 20260509135538 | 69 | 213 | 0.0 | 0.0 | 0.00 | 0.00 | 0.00 | 99 | 1004.3 |
| 20260509135035 | 69 | 81 | 1.0 | 2.0 | 0.00 | 0.00 | 0.00 | 99 | 1003.7 |
| 20260509134532 | 69 | 202 | 1.0 | 3.0 | 0.00 | 0.00 | 0.00 | 99 | 1003.7 |
| 20260509134030 | 69 | 104 | 3.0 | 4.0 | 0.00 | 0.00 | 0.00 | 99 | 1003.7 |
| 20260509133526 | 69 | 203 | 2.0 | 2.0 | 0.00 | 0.00 | 0.00 | 99 | 1003.5 |
| 20260509133024 | 68 | 161 | 2.0 | 4.0 | 0.00 | 0.00 | 0.00 | 99 | 1003.0 |
| 20260509132522 | 68 | 153 | 3.0 | 4.0 | 0.00 | 0.00 | 0.00 | 99 | 1002.8 |
| 20260509132020 | 68 | 197 | 3.0 | 3.0 | 0.00 | 0.00 | 0.00 | 99 | 1003.5 |
| 20260509131516 | 69 | 344 | 3.0 | 7.0 | 0.00 | 0.00 | 0.00 | 99 | 1003.1 |
| 20260509131013 | 68 | 320 | 7.0 | 14.0 | 0.00 | 0.00 | 0.00 | 99 | 1002.5 |
| 20260509130508 | 68 | 321 | 4.0 | 8.0 | 0.00 | 0.00 | 0.00 | 99 | 1003.5 |
| 20260509130006 | 68 | 322 | 3.0 | 3.0 | 0.00 | 0.00 | 0.00 | 99 | 1003.9 |
| 20260509125502 | 68 | 322 | 3.0 | 6.0 | 0.00 | 0.00 | 0.00 | 99 | 1004.3 |
| 20260509124958 | 68 | 322 | 3.0 | 3.0 | 0.00 | 0.00 | 0.00 | 99 | 1004.7 |
| 20260509124455 | 69 | 322 | 5.0 | 8.0 | 0.00 | 0.00 | 0.00 | 99 | 1005.0 |
| 20260509123952 | 70 | 322 | 4.0 | 6.0 | 0.00 | 0.00 | 0.00 | 99 | 1005.1 |
| 20260509123450 | 71 | 322 | 2.0 | 2.0 | 0.00 | 0.00 | 0.00 | 99 | 1005.4 |
| 20260509122945 | 72 | 322 | 2.0 | 7.0 | 0.00 | 0.00 | 0.00 | 99 | 1005.5 |
| 20260509122443 | 72 | 322 | 2.0 | 3.0 | 0.00 | 0.00 | 0.00 | 99 | 1005.6 |
| 20260509121939 | 72 | 322 | 1.0 | 1.0 | 0.00 | 0.00 | 0.00 | 99 | 1005.8 |
| 20260509121436 | 72 | 321 | 0.0 | 1.0 | 0.00 | 0.00 | 0.00 | 99 | 1005.6 |
| 20260509120934 | 71 | 321 | 3.0 | 6.0 | 0.00 | 0.00 | 0.00 | 99 | 1005.5 |
| 20260509120432 | 70 | 321 | 0.0 | 1.0 | 0.00 | 0.00 | 0.00 | 99 | 1005.8 |
| 20260509115930 | 70 | 320 | 0.0 | 0.0 | 0.00 | 0.00 | 0.00 | 99 | 1006.0 |
| 20260509115427 | 70 | 320 | 0.0 | 0.0 | 0.00 | 0.00 | 0.00 | 99 | 1006.1 |
| 20260509114924 | 70 | 320 | 2.0 | 2.0 | 0.00 | 0.00 | 0.00 | 99 | 1005.5 |
| 20260509114423 | 70 | 320 | 0.0 | 0.0 | 0.00 | 0.00 | 0.00 | 99 | 1005.4 |
| 20260509113922 | 71 | 320 | 1.0 | 4.0 | 0.00 | 0.00 | 0.00 | 99 | 1005.2 |
| 20260509113419 | 71 | 320 | 0.0 | 1.0 | 0.00 | 0.00 | 0.00 | 99 | 1006.1 |
| 20260509112916 | 72 | 320 | 1.0 | 2.0 | 0.00 | 0.00 | 0.00 | 99 | 1006.6 |
| 20260509112413 | 72 | 320 | 0.0 | 0.0 | 0.00 | 0.00 | 0.00 | 99 | 1006.7 |
| 20260509111910 | 72 | 308 | 0.0 | 0.0 | 0.00 | 0.00 | 0.00 | 99 | 1006.8 |
| 20260509111407 | 73 | 307 | 0.0 | 0.0 | 0.00 | 0.00 | 0.00 | 99 | 1006.9 |
| 20260509110904 | 72 | 266 | 0.0 | 0.0 | 0.00 | 0.00 | 0.00 | 99 | 1007.0 |
| 20260509110400 | 73 | 255 | 1.0 | 1.0 | 0.00 | 0.00 | 0.00 | 99 | 1007.2 |
| 20260509105859 | 73 | 234 | 0.0 | 0.0 | 0.00 | 0.00 | 0.00 | 99 | 1006.9 |
| 20260509105356 | 75 | 223 | 0.0 | 1.0 | 0.00 | 0.00 | 0.00 | 99 | 1006.9 |
| 20260509104853 | 76 | 245 | 1.0 | 1.0 | 0.00 | 0.00 | 0.00 | 99 | 1006.8 |
| 20260509104349 | 76 | 231 | 1.0 | 2.0 | 0.00 | 0.00 | 0.00 | 99 | 1007.0 |
| 20260509103847 | 76 | 226 | 0.0 | 0.0 | 0.00 | 0.00 | 0.00 | 99 | 1006.7 |
| 20260509103344 | 77 | 221 | 0.0 | 0.0 | 0.00 | 0.00 | 0.00 | 99 | 1006.7 |
| 20260509102843 | 77 | 223 | 0.0 | 0.0 | 0.00 | 0.00 | 0.00 | 99 | 1006.6 |
| 20260509102340 | 77 | 220 | 0.0 | 0.0 | 0.00 | 0.00 | 0.00 | 99 | 1006.5 |
| 20260509101835 | 77 | 220 | 0.0 | 0.0 | 0.00 | 0.00 | 0.00 | 99 | 1006.6 |
| 20260509101332 | 77 | 217 | 0.0 | 0.0 | 0.00 | 0.00 | 0.00 | 99 | 1006.8 |
| 20260509100830 | 77 | 215 | 0.0 | 0.0 | 0.00 | 0.00 | 0.00 | 99 | 1006.7 |
| 20260509100327 | 77 | 217 | 0.0 | 0.0 | 0.00 | 0.00 | 0.00 | 99 | 1006.2 |
| 20260509095823 | 77 | 218 | 0.0 | 0.0 | 0.00 | 0.00 | 0.00 | 99 | 1005.8 |
| 20260509095321 | 77 | 220 | 0.0 | 0.0 | 0.00 | 0.00 | 0.00 | 99 | 1005.5 |
| 20260509094818 | 77 | 220 | 0.0 | 0.0 | 0.00 | 0.00 | 0.00 | 99 | 1005.3 |
| 20260509094314 | 77 | 217 | 0.0 | 0.0 | 0.00 | 0.00 | 0.00 | 99 | 1005.0 |
| 20260509093812 | 76 | 217 | 0.0 | 0.0 | 0.00 | 0.00 | 0.00 | 99 | 1004.7 |
| 20260509093309 | 77 | 218 | 0.0 | 0.0 | 0.00 | 0.00 | 0.00 | 99 | 1004.2 |
| 20260509092808 | 77 | 218 | 0.0 | 0.0 | 0.00 | 0.00 | 0.00 | 99 | 1003.9 |
| 20260509092306 | 77 | 221 | 0.0 | 0.0 | 0.00 | 0.00 | 0.00 | 99 | 1003.6 |
| 20260509091803 | 77 | 232 | 0.0 | 0.0 | 0.00 | 0.00 | 0.00 | 99 | 1003.3 |
| 20260509091259 | 77 | 224 | 0.0 | 0.0 | 0.00 | 0.00 | 0.00 | 99 | 1003.1 |
| 20260509090757 | 77 | 211 | 0.0 | 0.0 | 0.00 | 0.00 | 0.00 | 99 | 1003.1 |
| 20260509090254 | 77 | 213 | 0.0 | 0.0 | 0.00 | 0.00 | 0.00 | 99 | 1002.9 |
| 20260509085751 | 77 | 200 | 0.0 | 0.0 | 0.00 | 0.00 | 0.00 | 99 | 1002.9 |
| 20260509085249 | 77 | 213 | 0.0 | 0.0 | 0.00 | 0.00 | 0.00 | 99 | 1002.9 |
| 20260509084745 | 77 | 212 | 0.0 | 0.0 | 0.00 | 0.00 | 0.00 | 99 | 1003.0 |
| 20260509084242 | 77 | 167 | 0.0 | 0.0 | 0.00 | 0.00 | 0.00 | 99 | 1003.1 |
| 20260509083740 | 77 | 232 | 0.0 | 0.0 | 0.00 | 0.00 | 0.00 | 99 | 1003.0 |
| 20260509083236 | 77 | 210 | 0.0 | 0.0 | 0.00 | 0.00 | 0.00 | 99 | 1003.5 |
| 20260509082733 | 77 | 207 | 0.0 | 0.0 | 0.00 | 0.00 | 0.00 | 99 | 1003.4 |
| 20260509082229 | 77 | 210 | 0.0 | 0.0 | 0.00 | 0.00 | 0.00 | 99 | 1003.6 |
| 20260509081727 | 77 | 215 | 0.0 | 0.0 | 0.00 | 0.00 | 0.00 | 99 | 1003.6 |
| 20260509081224 | 77 | 207 | 0.0 | 0.0 | 0.00 | 0.00 | 0.00 | 99 | 1003.6 |
| 20260509080722 | 77 | 209 | 0.0 | 0.0 | 0.00 | 0.00 | 0.00 | 99 | 1003.8 |
| 20260509080219 | 77 | 204 | 0.0 | 0.0 | 0.00 | 0.00 | 0.00 | 99 | 1003.8 |
| 20260509075718 | 77 | 206 | 0.0 | 0.0 | 0.00 | 0.00 | 0.00 | 99 | 1004.0 |
| 20260509075215 | 77 | 182 | 0.0 | 0.0 | 0.00 | 0.00 | 0.00 | 99 | 1004.2 |
| 20260509074711 | 77 | 205 | 0.0 | 0.0 | 0.00 | 0.00 | 0.00 | 99 | 1003.9 |
| 20260509074209 | 77 | 213 | 0.0 | 0.0 | 0.00 | 0.00 | 0.00 | 99 | 1004.2 |
| 20260509073705 | 77 | 210 | 0.0 | 0.0 | 0.00 | 0.00 | 0.00 | 99 | 1004.2 |
| 20260509073202 | 77 | 208 | 0.0 | 0.0 | 0.00 | 0.00 | 0.00 | 99 | 1004.4 |
| 20260509072658 | 77 | 206 | 0.0 | 0.0 | 0.00 | 0.00 | 0.00 | 99 | 1004.5 |
| 20260509072155 | 77 | 214 | 0.0 | 0.0 | 0.00 | 0.00 | 0.00 | 99 | 1004.3 |
| 20260509071652 | 77 | 216 | 0.0 | 0.0 | 0.00 | 0.00 | 0.00 | 99 | 1004.2 |
| 20260509071149 | 77 | 211 | 0.0 | 0.0 | 0.00 | 0.00 | 0.00 | 99 | 1004.5 |
| 20260509070646 | 77 | 203 | 0.0 | 0.0 | 0.00 | 0.00 | 0.00 | 99 | 1004.3 |
| 20260509070142 | 77 | 212 | 0.0 | 0.0 | 0.00 | 0.00 | 0.00 | 99 | 1004.2 |
| 20260509065638 | 77 | 209 | 0.0 | 0.0 | 0.00 | 0.00 | 0.00 | 99 | 1004.0 |
| 20260509065134 | 77 | 201 | 0.0 | 0.0 | 0.00 | 0.00 | 0.00 | 99 | 1004.3 |
| 20260509064631 | 77 | 162 | 0.0 | 1.0 | 0.00 | 0.00 | 0.00 | 98 | 1004.2 |
| 20260509064129 | 77 | 216 | 0.0 | 0.0 | 0.00 | 0.00 | 0.00 | 98 | 1004.4 |
| 20260509063625 | 77 | 272 | 0.0 | 0.0 | 0.00 | 0.00 | 0.00 | 98 | 1004.7 |
| 20260509063117 | 77 | 207 | 0.0 | 0.0 | 0.00 | 0.00 | 0.00 | 98 | 1005.0 |
| 20260509062614 | 77 | 230 | 0.0 | 1.0 | 0.00 | 0.00 | 0.00 | 98 | 1004.6 |
| 20260509062111 | 77 | 217 | 0.0 | 0.0 | 0.00 | 0.00 | 0.00 | 98 | 1003.8 |
| 20260509061608 | 77 | 358 | 0.0 | 1.0 | 0.00 | 0.00 | 0.00 | 98 | 1003.8 |
| 20260509061105 | 78 | 224 | 0.0 | 1.0 | 0.00 | 0.00 | 0.00 | 98 | 1003.9 |
| 20260509060603 | 78 | 23 | 0.0 | 0.0 | 0.00 | 0.00 | 0.00 | 97 | 1004.2 |
| 20260509060058 | 78 | 268 | 0.0 | 0.0 | 0.00 | 0.00 | 0.00 | 97 | 1004.3 |
| 20260509055554 | 78 | 246 | 0.0 | 0.0 | 0.00 | 0.00 | 0.00 | 97 | 1004.3 |
| 20260509055050 | 78 | 269 | 0.0 | 0.0 | 0.00 | 0.00 | 0.00 | 97 | 1004.6 |
| 20260509054547 | 78 | 201 | 0.0 | 0.0 | 0.00 | 0.00 | 0.00 | 97 | 1004.9 |
| 20260509054045 | 78 | 202 | 0.0 | 0.0 | 0.00 | 0.00 | 0.00 | 97 | 1004.9 |
| 20260509053543 | 78 | 148 | 0.0 | 0.0 | 0.00 | 0.00 | 0.00 | 97 | 1004.9 |
| 20260509053040 | 78 | 194 | 0.0 | 0.0 | 0.00 | 0.00 | 0.00 | 97 | 1004.9 |
| 20260509052538 | 78 | 200 | 0.0 | 0.0 | 0.00 | 0.00 | 0.00 | 97 | 1004.8 |
| 20260509052035 | 78 | 215 | 0.0 | 0.0 | 0.00 | 0.00 | 0.00 | 97 | 1004.7 |
| 20260509051533 | 78 | 233 | 0.0 | 0.0 | 0.00 | 0.00 | 0.00 | 97 | 1004.5 |
| 20260509051030 | 78 | 158 | 1.0 | 2.0 | 0.00 | 0.00 | 0.00 | 97 | 1004.5 |
| 20260509050527 | 78 | 211 | 0.0 | 0.0 | 0.00 | 0.00 | 0.00 | 97 | 1004.3 |
| 20260509050023 | 78 | 206 | 0.0 | 0.0 | 0.00 | 0.00 | 0.00 | 96 | 1004.6 |
| 20260509045520 | 78 | 192 | 0.0 | 1.0 | 0.00 | 0.00 | 0.00 | 96 | 1004.7 |
| 20260509045017 | 78 | 215 | 0.0 | 0.0 | 0.00 | 0.00 | 0.00 | 96 | 1004.8 |
| 20260509044515 | 78 | 213 | 0.0 | 0.0 | 0.00 | 0.00 | 0.00 | 96 | 1004.7 |
| 20260509044013 | 78 | 208 | 0.0 | 0.0 | 0.00 | 0.00 | 0.00 | 96 | 1004.9 |
| 20260509043508 | 78 | 212 | 0.0 | 0.0 | 0.00 | 0.00 | 0.00 | 96 | 1005.0 |
| 20260509043005 | 78 | 211 | 0.0 | 0.0 | 0.00 | 0.00 | 0.00 | 95 | 1004.7 |
| 20260509042501 | 78 | 208 | 0.0 | 0.0 | 0.00 | 0.00 | 0.00 | 95 | 1004.7 |
| 20260509041956 | 78 | 220 | 1.0 | 1.0 | 0.00 | 0.00 | 0.00 | 95 | 1004.4 |
| 20260509041454 | 78 | 211 | 0.0 | 0.0 | 0.00 | 0.00 | 0.00 | 95 | 1004.5 |
| 20260509040952 | 78 | 238 | 1.0 | 1.0 | 0.00 | 0.00 | 0.00 | 95 | 1004.5 |
| 20260509040449 | 78 | 200 | 0.0 | 0.0 | 0.00 | 0.00 | 0.00 | 95 | 1004.7 |
| 20260509035946 | 78 | 207 | 0.0 | 0.0 | 0.00 | 0.00 | 0.00 | 95 | 1004.8 |
| 20260509035443 | 78 | 214 | 0.0 | 0.0 | 0.00 | 0.00 | 0.00 | 95 | 1004.6 |
| 20260509034939 | 78 | 206 | 0.0 | 0.0 | 0.00 | 0.00 | 0.00 | 95 | 1004.4 |
| 20260509034437 | 78 | 82 | 1.0 | 3.0 | 0.00 | 0.00 | 0.00 | 95 | 1004.5 |
| 20260509033934 | 78 | 200 | 1.0 | 2.0 | 0.00 | 0.00 | 0.00 | 95 | 1004.3 |
| 20260509033431 | 78 | 184 | 0.0 | 1.0 | 0.00 | 0.00 | 0.00 | 95 | 1004.6 |
| 20260509032928 | 78 | 186 | 1.0 | 1.0 | 0.00 | 0.00 | 0.00 | 95 | 1004.3 |
| 20260509032425 | 78 | 194 | 0.0 | 0.0 | 0.00 | 0.00 | 0.00 | 95 | 1004.0 |
| 20260509031923 | 78 | 190 | 2.0 | 4.0 | 0.00 | 0.00 | 0.00 | 95 | 1003.7 |
| 20260509031420 | 78 | 197 | 0.0 | 0.0 | 0.00 | 0.00 | 0.00 | 95 | 1003.7 |
| 20260509030917 | 78 | 208 | 0.0 | 0.0 | 0.00 | 0.00 | 0.00 | 95 | 1003.5 |
| 20260509030415 | 78 | 179 | 2.0 | 2.0 | 0.00 | 0.00 | 0.00 | 95 | 1003.4 |
| 20260509025912 | 78 | 189 | 0.0 | 0.0 | 0.00 | 0.00 | 0.00 | 95 | 1003.2 |
| 20260509025408 | 79 | 198 | 0.0 | 0.0 | 0.00 | 0.00 | 0.00 | 95 | 1003.3 |
| 20260509024903 | 78 | 200 | 0.0 | 0.0 | 0.00 | 0.00 | 0.00 | 95 | 1003.3 |
| 20260509024359 | 78 | 166 | 3.0 | 4.0 | 0.00 | 0.00 | 0.00 | 95 | 1003.3 |
| 20260509023856 | 78 | 192 | 1.0 | 2.0 | 0.00 | 0.00 | 0.00 | 95 | 1003.2 |
| 20260509023354 | 79 | 193 | 0.0 | 0.0 | 0.00 | 0.00 | 0.00 | 95 | 1003.2 |
| 20260509022850 | 79 | 201 | 0.0 | 0.0 | 0.00 | 0.00 | 0.00 | 95 | 1003.2 |
| 20260509022347 | 79 | 204 | 0.0 | 0.0 | 0.00 | 0.00 | 0.00 | 95 | 1002.8 |
| 20260509021844 | 79 | 202 | 0.0 | 0.0 | 0.00 | 0.00 | 0.00 | 95 | 1002.7 |
| 20260509021341 | 79 | 201 | 0.0 | 0.0 | 0.00 | 0.00 | 0.00 | 95 | 1002.7 |
| 20260509020839 | 79 | 130 | 1.0 | 1.0 | 0.00 | 0.00 | 0.00 | 95 | 1002.4 |
| 20260509020337 | 79 | 196 | 0.0 | 0.0 | 0.00 | 0.00 | 0.00 | 95 | 1002.5 |
| 20260509015834 | 79 | 202 | 0.0 | 1.0 | 0.00 | 0.00 | 0.00 | 95 | 1002.5 |
| 20260509015332 | 79 | 198 | 0.0 | 0.0 | 0.00 | 0.00 | 0.00 | 95 | 1002.4 |
| 20260509014829 | 79 | 145 | 1.0 | 2.0 | 0.00 | 0.00 | 0.00 | 94 | 1002.6 |
| 20260509014326 | 79 | 196 | 0.0 | 0.0 | 0.00 | 0.00 | 0.00 | 94 | 1002.3 |
| 20260509013822 | 79 | 208 | 0.0 | 1.0 | 0.00 | 0.00 | 0.00 | 94 | 1002.0 |
| 20260509013319 | 79 | 168 | 2.0 | 3.0 | 0.00 | 0.00 | 0.00 | 94 | 1002.0 |
| 20260509012815 | 79 | 162 | 1.0 | 2.0 | 0.00 | 0.00 | 0.00 | 94 | 1002.0 |
| 20260509012312 | 79 | 198 | 1.0 | 1.0 | 0.00 | 0.00 | 0.00 | 94 | 1002.0 |
| 20260509011809 | 79 | 210 | 2.0 | 3.0 | 0.00 | 0.00 | 0.00 | 94 | 1001.9 |
| 20260509011306 | 79 | 197 | 2.0 | 2.0 | 0.00 | 0.00 | 0.00 | 93 | 1002.1 |
| 20260509010804 | 80 | 200 | 0.0 | 0.0 | 0.00 | 0.00 | 0.00 | 93 | 1001.9 |
| 20260509010301 | 79 | 197 | 1.0 | 1.0 | 0.00 | 0.00 | 0.00 | 93 | 1001.7 |
| 20260509005758 | 80 | 182 | 1.0 | 2.0 | 0.00 | 0.00 | 0.00 | 93 | 1001.7 |
| 20260509005256 | 80 | 190 | 1.0 | 1.0 | 0.00 | 0.00 | 0.00 | 93 | 1001.7 |